FW2929 Weather Reports


time (UTC)temp
F
wind
direction
speed
knots
gust
knots
rain 1hr
in
rain 24hr
in
rain mn
in
humidity
%
barometer
mb
20260506163835 59 360 0.0 0.0 0.00 0.00 0.00 67 1009.4
20260506163346 59 346 0.0 0.0 0.00 0.00 0.00 67 1009.4
20260506162835 59 348 0.0 0.0 0.00 0.00 0.00 67 1009.2
20260506162328 59 348 0.0 0.0 0.00 0.00 0.00 66 1009.1
20260506161838 59 31 0.0 2.6 0.00 0.00 0.00 66 1009.3
20260506161357 59 360 0.0 2.6 0.00 0.00 0.00 68 1009.2
20260506160828 58 360 0.0 0.9 0.00 0.00 0.00 68 1009.2
20260506160339 58 360 0.0 0.9 0.00 0.00 0.00 70 1009.3
20260506155844 58 360 0.0 0.0 0.00 0.00 0.00 71 1009.2
20260506155405 58 360 0.0 0.0 0.00 0.00 0.00 70 1009.2
20260506154836 58 360 0.0 0.0 0.00 0.00 0.00 70 1009.2
20260506154358 58 360 0.0 0.0 0.00 0.00 0.00 70 1009.2
20260506153828 57 360 0.0 0.0 0.00 0.00 0.00 71 1009.1
20260506153340 57 360 0.0 0.0 0.00 0.00 0.00 71 1009.1
20260506152829 57 360 0.0 0.0 0.00 0.00 0.00 71 1009.2
20260506152343 57 360 0.0 0.0 0.00 0.00 0.00 71 1009.2
20260506151831 57 360 0.0 0.0 0.00 0.00 0.00 71 1009.2
20260506151342 57 360 0.0 0.0 0.00 0.00 0.00 70 1009.1
20260506150833 57 360 0.0 0.0 0.00 0.00 0.00 71 1009.2
20260506150345 57 360 0.0 0.0 0.00 0.00 0.00 70 1009.1
20260506145849 57 360 0.0 0.0 0.00 0.00 0.00 73 1009.1
20260506145339 57 360 0.0 0.0 0.00 0.00 0.00 73 1009.2
20260506144851 57 360 0.0 0.0 0.00 0.00 0.00 72 1009.1
20260506144337 56 360 0.0 1.7 0.00 0.00 0.00 72 1009.2
20260506143846 57 360 0.0 1.7 0.00 0.00 0.00 73 1009.2
20260506143406 57 360 0.0 0.0 0.00 0.00 0.00 74 1009.1
20260506142834 57 360 0.0 0.0 0.00 0.00 0.00 73 1009.1
20260506142345 57 360 0.0 0.0 0.00 0.00 0.00 73 1009.2
20260506141904 57 360 0.0 2.6 0.00 0.00 0.00 73 1009.2
20260506141341 57 360 0.0 2.6 0.00 0.00 0.00 73 1009.2
20260506140832 57 360 0.0 1.7 0.00 0.00 0.00 72 1009.2
20260506140339 58 360 0.0 1.7 0.00 0.00 0.00 71 1009.2
20260506135847 58 360 0.0 1.7 0.00 0.00 0.00 70 1009.2
20260506135337 58 360 0.0 0.9 0.00 0.00 0.00 70 1009.3
20260506134828 58 360 0.0 1.7 0.00 0.00 0.00 70 1009.2
20260506134335 58 360 0.0 1.7 0.00 0.00 0.00 69 1009.1
20260506133828 58 360 0.0 0.9 0.00 0.00 0.00 69 1009.2
20260506133341 58 360 0.0 0.0 0.00 0.00 0.00 69 1009.2
20260506132831 58 360 0.0 0.0 0.00 0.00 0.00 69 1009.3
20260506132346 58 360 0.0 0.0 0.00 0.00 0.00 67 1009.4
20260506131835 58 360 0.0 0.0 0.00 0.00 0.00 69 1009.3
20260506131347 58 360 0.0 0.0 0.00 0.00 0.00 70 1009.2
20260506130838 58 360 0.0 0.0 0.00 0.00 0.00 70 1009.2
20260506130351 58 360 0.0 0.0 0.00 0.00 0.00 71 1009.2
20260506125841 58 360 0.0 0.0 0.00 0.00 0.00 70 1009.2
20260506125334 58 360 0.0 0.0 0.00 0.00 0.00 71 1009.1
20260506124846 58 360 0.0 0.0 0.00 0.00 0.00 72 1009.0
20260506124332 57 360 0.0 0.0 0.00 0.00 0.00 72 1009.0
20260506123846 57 360 0.0 0.0 0.00 0.00 0.00 73 1009.1
20260506123340 57 360 0.0 0.0 0.00 0.00 0.00 73 1009.0
20260506122828 57 360 0.0 0.0 0.00 0.00 0.00 74 1009.0
20260506122337 57 360 0.0 0.0 0.00 0.00 0.00 74 1009.0
20260506121829 57 360 0.0 0.0 0.00 0.00 0.00 75 1009.0
20260506121340 56 349 0.0 0.0 0.00 0.00 0.00 76 1009.0
20260506120828 56 350 0.0 0.0 0.00 0.00 0.00 74 1009.1
20260506120335 55 296 0.0 0.0 0.00 0.00 0.00 75 1009.1
20260506115845 55 360 0.0 0.0 0.00 0.00 0.00 76 1009.0
20260506115336 55 360 0.0 0.0 0.00 0.00 0.00 77 1009.0
20260506114850 54 295 0.0 0.0 0.00 0.00 0.00 76 1009.0
20260506114342 54 296 0.0 0.0 0.00 0.00 0.00 78 1009.0
20260506113844 54 360 0.0 0.0 0.00 0.00 0.00 78 1009.1
20260506113337 54 360 0.0 0.0 0.00 0.00 0.00 77 1009.1
20260506112830 53 360 0.0 0.0 0.00 0.00 0.00 77 1009.1
20260506112340 53 360 0.0 0.0 0.00 0.00 0.00 77 1009.1
20260506111831 53 360 0.0 0.0 0.00 0.00 0.00 78 1009.1
20260506111345 53 360 0.0 0.0 0.00 0.00 0.00 78 1009.2
20260506110906 53 360 0.0 0.0 0.00 0.00 0.00 78 1009.2
20260506110407 53 360 0.0 0.0 0.00 0.00 0.00 79 1009.2
20260506105905 53 360 0.0 0.0 0.00 0.00 0.00 79 1009.1
20260506105339 53 360 0.0 0.0 0.00 0.00 0.00 79 1009.2
20260506104832 53 360 0.0 0.0 0.00 0.00 0.00 79 1009.2
20260506104342 53 360 0.0 0.0 0.00 0.00 0.00 79 1009.1
20260506103901 53 360 0.0 0.0 0.00 0.00 0.00 79 1009.1
20260506103333 53 360 0.0 0.0 0.00 0.00 0.00 79 1009.2
20260506102845 53 360 0.0 0.0 0.00 0.00 0.00 79 1009.1
20260506102339 53 360 0.0 0.0 0.00 0.00 0.00 79 1009.0
20260506101831 53 360 0.0 0.0 0.00 0.00 0.00 79 1009.1
20260506101345 53 360 0.0 0.0 0.00 0.00 0.00 79 1009.1
20260506100839 53 360 0.0 0.0 0.00 0.00 0.00 79 1009.0
20260506100332 53 360 0.0 0.0 0.00 0.00 0.00 78 1009.0
20260506095839 53 360 0.0 0.0 0.00 0.00 0.00 77 1009.0
20260506095339 53 360 0.0 0.0 0.00 0.00 0.00 77 1008.9
20260506094845 53 360 0.0 0.0 0.00 0.00 0.00 76 1008.9
20260506094339 53 360 0.0 0.0 0.00 0.00 0.00 76 1008.9
20260506093834 53 360 0.0 0.0 0.00 0.00 0.00 76 1008.8
20260506093346 53 360 0.0 0.0 0.00 0.00 0.00 77 1008.7
20260506092836 53 360 0.0 0.0 0.00 0.00 0.00 76 1008.8
20260506092358 53 360 0.0 0.0 0.00 0.00 0.00 76 1008.6
20260506091846 54 360 0.0 0.0 0.00 0.00 0.00 75 1008.6
20260506091339 54 360 0.0 0.0 0.00 0.00 0.00 76 1008.6
20260506090834 54 360 0.0 0.0 0.00 0.00 0.00 75 1008.6
20260506090345 54 360 0.0 0.0 0.00 0.00 0.00 75 1008.6
20260506085835 54 360 0.0 0.0 0.00 0.00 0.00 75 1008.5
20260506085330 54 360 0.0 0.0 0.00 0.00 0.00 75 1008.5
20260506084847 54 360 0.0 0.0 0.00 0.00 0.00 75 1008.5
20260506084341 54 360 0.0 0.0 0.00 0.00 0.00 76 1008.5
20260506083834 54 360 0.0 0.0 0.00 0.00 0.00 77 1008.5
20260506083345 54 360 0.0 0.0 0.00 0.00 0.00 77 1008.4
20260506082844 53 360 0.0 0.0 0.00 0.00 0.00 78 1008.3
20260506082343 53 360 0.0 0.0 0.00 0.00 0.00 76 1008.3
20260506081837 53 360 0.0 0.0 0.00 0.00 0.00 76 1008.3
20260506081331 53 360 0.0 0.0 0.00 0.00 0.00 76 1008.4
20260506080845 53 360 0.0 0.0 0.00 0.00 0.00 76 1008.2
20260506080337 54 360 0.0 0.0 0.00 0.00 0.00 75 1008.3
20260506073347 55 360 0.0 0.0 0.00 0.00 0.00 75 1008.3
20260506072835 55 360 0.0 0.0 0.00 0.00 0.00 75 1008.2
20260506072328 55 360 0.0 0.0 0.00 0.00 0.00 76 1008.2
20260506071839 54 360 0.0 0.0 0.00 0.00 0.00 76 1008.0
20260506071356 54 360 0.0 0.0 0.00 0.00 0.00 76 1008.0
20260506070858 54 360 0.0 0.0 0.00 0.00 0.00 76 1008.0
20260506070339 54 360 0.0 0.0 0.00 0.00 0.00 75 1008.1
20260506062339 51 360 0.0 0.9 0.00 0.00 0.00 81 1008.0
20260506061829 51 36 0.0 0.9 0.00 0.00 0.00 82 1007.9
20260506061339 51 36 0.0 0.9 0.00 0.00 0.00 82 1008.0
20260506060829 50 360 0.0 0.9 0.00 0.00 0.00 83 1007.9
20260506060340 50 360 0.0 0.9 0.00 0.00 0.00 84 1007.9
20260506051330 47 360 0.0 0.0 0.00 0.00 0.00 86 1007.8
20260506050834 47 360 0.0 0.0 0.00 0.00 0.00 85 1007.8
20260506050342 47 360 0.0 0.0 0.00 0.00 0.00 85 1007.7
20260506044834 47 360 0.0 0.0 0.00 0.00 0.00 84 1007.7
20260506044343 47 360 0.0 0.0 0.00 0.00 0.00 84 1007.7
20260506043833 48 360 0.0 0.0 0.00 0.00 0.00 84 1007.8
20260506043339 48 360 0.0 0.0 0.00 0.00 0.00 84 1007.9
20260506042847 48 360 0.0 0.0 0.00 0.00 0.00 83 1007.8
20260506042406 48 360 0.0 0.0 0.00 0.00 0.00 83 1007.8
20260506041905 48 360 0.0 0.0 0.00 0.00 0.00 83 1007.8
20260506041401 48 360 0.0 0.0 0.00 0.00 0.00 83 1007.7
20260506040829 48 360 0.0 0.0 0.00 0.00 0.00 83 1007.8
20260506040335 48 360 0.0 0.0 0.00 0.00 0.00 83 1007.8
20260506035843 48 360 0.0 0.0 0.00 0.00 0.00 83 1007.8
20260506035341 48 360 0.0 0.0 0.00 0.00 0.00 82 1007.9
20260506034900 48 360 0.0 0.0 0.00 0.00 0.00 83 1007.9
20260506034337 48 360 0.0 0.0 0.00 0.00 0.00 83 1007.9
20260506033827 48 360 0.0 0.0 0.00 0.00 0.00 83 1007.8
20260506033339 49 360 0.0 0.9 0.00 0.00 0.00 82 1007.8
20260506032843 49 360 0.0 0.9 0.00 0.00 0.00 82 1007.8
20260506032402 49 360 0.0 0.9 0.00 0.00 0.00 82 1007.8
20260506031830 49 360 0.0 0.9 0.00 0.00 0.00 83 1007.8
20260506031340 49 360 0.0 0.0 0.00 0.00 0.00 83 1008.0
20260506030830 49 360 0.0 0.9 0.00 0.00 0.00 82 1007.8
20260506030341 49 360 0.0 0.9 0.00 0.00 0.00 82 1007.9
20260506025828 49 360 0.0 0.9 0.00 0.00 0.00 83 1007.9
20260506025339 49 360 0.0 0.0 0.00 0.00 0.00 83 1007.9
20260506024832 49 360 0.0 0.0 0.00 0.00 0.00 83 1007.9
20260506024347 49 360 0.0 0.9 0.00 0.00 0.00 82 1007.8
20260506023838 49 360 0.0 0.0 0.00 0.00 0.00 82 1007.9
20260506023329 49 360 0.0 0.0 0.00 0.00 0.00 82 1007.9
20260506022839 49 360 0.0 0.0 0.00 0.00 0.00 82 1007.9
20260506022331 49 360 0.0 0.0 0.00 0.00 0.00 82 1007.9
20260506021842 49 360 0.0 0.9 0.00 0.00 0.00 81 1007.9
20260506021353 49 360 0.0 0.9 0.00 0.00 0.00 81 1007.8
20260506020839 49 360 0.0 0.0 0.00 0.00 0.00 81 1007.9
20260506020330 49 360 0.0 0.9 0.00 0.00 0.00 81 1007.9
20260506015840 49 360 0.0 0.9 0.00 0.00 0.00 81 1007.8
20260506015351 49 360 0.0 0.0 0.00 0.00 0.00 81 1007.9
20260506014842 49 360 0.0 0.9 0.00 0.00 0.00 81 1007.9
20260506014331 49 360 0.0 0.9 0.00 0.00 0.00 80 1007.9
20260506013843 49 360 0.0 0.9 0.00 0.00 0.00 81 1007.9
20260506013351 50 360 0.0 0.9 0.00 0.00 0.00 81 1007.9
20260506012839 50 360 0.0 0.9 0.00 0.00 0.00 81 1007.9
20260506012359 50 360 0.0 0.9 0.00 0.00 0.00 82 1007.9
20260506011827 50 360 0.0 0.9 0.00 0.00 0.00 82 1007.8
20260506011408 50 360 0.0 0.9 0.00 0.00 0.00 82 1007.9
20260506010906 50 360 0.0 0.9 0.00 0.00 0.00 82 1007.9
20260506010338 50 360 0.0 0.9 0.00 0.00 0.00 82 1008.0
20260506005830 50 360 0.0 1.7 0.00 0.00 0.00 82 1007.9
20260506005345 50 360 0.0 1.7 0.00 0.00 0.00 83 1007.9
20260506004836 50 360 0.0 0.9 0.00 0.00 0.00 83 1008.0
20260506004327 50 360 0.0 0.9 0.00 0.00 0.00 83 1008.0
20260506003839 50 360 0.0 0.9 0.00 0.00 0.00 83 1008.0
20260506003351 50 360 0.0 0.9 0.00 0.00 0.00 83 1008.1
20260506002907 50 360 0.0 0.9 0.00 0.00 0.00 83 1008.1
20260506002353 50 360 0.0 0.9 0.00 0.00 0.00 83 1008.3
20260506001845 50 360 0.0 0.9 0.00 0.00 0.00 83 1008.2
20260506001338 50 360 0.0 0.9 0.00 0.00 0.00 84 1008.3
20260506000829 50 360 0.0 0.9 0.00 0.00 0.00 83 1008.2
20260506000342 50 360 0.0 0.9 0.00 0.00 0.00 84 1008.3
20260505235833 50 360 0.0 0.9 0.00 0.00 0.00 83 1008.2
20260505235345 50 360 0.0 0.9 0.00 0.00 0.00 83 1008.2
20260505234836 51 360 0.0 0.9 0.00 0.00 0.00 83 1008.3
20260505234345 51 360 0.0 0.0 0.00 0.00 0.00 83 1008.3
20260505233859 51 360 0.0 0.9 0.00 0.00 0.00 83 1008.3
20260505233347 51 360 0.0 0.9 0.00 0.00 0.00 83 1008.4
20260505232904 51 360 0.0 0.9 0.00 0.00 0.00 83 1008.3
20260505232331 51 360 0.0 0.9 0.00 0.00 0.00 83 1008.3
20260505231841 51 360 0.0 0.9 0.00 0.00 0.00 83 1008.4
20260505231329 51 360 0.0 0.0 0.00 0.00 0.00 83 1008.3
20260505230839 51 360 0.0 0.9 0.00 0.00 0.00 83 1008.4
20260505230332 51 360 0.0 0.9 0.00 0.00 0.00 82 1008.4
20260505225840 51 360 0.0 0.9 0.00 0.00 0.00 82 1008.4
20260505225331 51 360 0.0 0.9 0.00 0.00 0.00 82 1008.4
20260505224838 51 360 0.0 0.9 0.00 0.00 0.00 82 1008.5
20260505224348 51 360 0.0 0.0 0.00 0.00 0.00 82 1008.5
20260505223836 51 360 0.0 0.9 0.00 0.00 0.00 82 1008.4
20260505223345 51 360 0.0 0.9 0.00 0.00 0.00 81 1008.5
20260505222828 51 360 0.0 1.7 0.00 0.00 0.00 82 1008.5
20260505222337 51 360 0.0 1.7 0.00 0.00 0.00 82 1008.5
20260505221828 52 360 0.0 0.0 0.00 0.00 0.00 81 1008.4
20260505221337 52 360 0.0 0.9 0.00 0.00 0.00 81 1008.4
20260505220827 52 360 0.0 0.9 0.00 0.00 0.00 81 1008.5
20260505220405 52 360 0.0 0.9 0.00 0.00 0.00 81 1008.6
20260505215842 52 360 0.0 0.9 0.00 0.00 0.00 82 1008.5
20260505215348 52 360 0.0 0.9 0.00 0.00 0.00 81 1008.5
20260505214837 52 360 0.0 0.9 0.00 0.00 0.00 81 1008.5
20260505214346 52 360 0.0 1.7 0.00 0.00 0.00 81 1008.6
20260505213840 52 360 0.0 1.7 0.00 0.00 0.00 81 1008.6
20260505213350 52 360 0.0 0.9 0.00 0.00 0.00 81 1008.7
20260505212838 52 360 0.0 0.9 0.00 0.00 0.00 81 1008.6
20260505212357 52 360 0.0 0.9 0.00 0.00 0.00 81 1008.6
20260505211840 52 360 0.0 0.9 0.00 0.00 0.00 81 1008.6
20260505211331 52 360 0.0 1.7 0.00 0.00 0.00 81 1008.8
20260505210841 52 360 0.0 1.7 0.00 0.00 0.00 81 1008.7
20260505210332 52 360 0.0 0.9 0.00 0.00 0.00 80 1008.7
20260505205840 52 360 0.0 0.9 0.00 0.00 0.00 80 1008.7
20260505205329 52 360 0.0 0.9 0.00 0.00 0.00 80 1008.7
20260505204838 53 360 0.0 0.0 0.00 0.00 0.00 80 1008.7
20260505204328 53 360 0.0 1.7 0.00 0.00 0.00 80 1008.6
20260505203833 53 360 0.0 1.7 0.00 0.00 0.00 80 1008.6
20260505203343 53 360 0.0 0.9 0.00 0.00 0.00 80 1008.6
20260505202851 53 360 0.0 0.9 0.00 0.00 0.00 80 1008.6
20260505202340 53 360 0.0 0.9 0.00 0.00 0.00 80 1008.6
20260505201831 53 360 0.0 0.9 0.00 0.00 0.00 80 1008.5
20260505201340 53 360 0.0 0.9 0.00 0.00 0.00 79 1008.4
20260505200859 53 360 0.0 0.9 0.00 0.00 0.00 80 1008.5
20260505200343 53 360 0.0 0.9 0.00 0.00 0.00 80 1008.4
20260505195831 54 360 0.0 0.9 0.00 0.00 0.00 79 1008.2
20260505195340 54 360 0.0 0.9 0.00 0.00 0.00 79 1008.2
20260505194849 54 360 0.0 0.9 0.00 0.00 0.00 79 1008.1
20260505194339 54 360 0.0 0.9 0.00 0.00 0.00 78 1008.0
20260505193828 54 360 0.0 0.9 0.00 0.00 0.00 78 1008.0
20260505193338 54 360 0.0 0.9 0.00 0.00 0.00 78 1007.9
20260505192846 54 360 0.0 0.9 0.00 0.00 0.00 77 1008.0
20260505192352 54 360 0.0 0.0 0.00 0.00 0.00 78 1007.8
20260505191840 55 360 0.0 0.0 0.00 0.00 0.00 77 1007.8
20260505191330 55 360 0.0 0.0 0.00 0.00 0.00 77 1007.8
20260505190839 55 360 0.0 0.0 0.00 0.00 0.00 76 1007.8
20260505190329 55 360 0.0 0.0 0.00 0.00 0.00 76 1007.7
20260505185904 55 360 0.0 0.9 0.00 0.00 0.00 77 1007.7
20260505185332 56 360 0.0 0.9 0.00 0.00 0.00 76 1007.7
20260505184907 56 360 0.0 0.9 0.00 0.00 0.00 75 1007.7
20260505184338 56 360 0.0 2.6 0.00 0.00 0.00 75 1007.7
20260505183830 56 360 0.0 2.6 0.00 0.00 0.00 75 1007.7
20260505183409 56 360 0.0 0.9 0.00 0.00 0.00 75 1007.6
20260505182857 56 360 0.0 0.9 0.00 0.00 0.00 74 1007.6
20260505182404 57 360 0.0 1.7 0.00 0.00 0.00 74 1007.6
20260505181834 57 360 0.0 1.7 0.00 0.00 0.00 73 1007.6
20260505181342 57 360 0.0 0.9 0.00 0.00 0.00 74 1007.6
20260505180841 57 360 0.0 0.9 0.00 0.00 0.00 74 1007.6
20260505180402 57 360 0.0 0.0 0.00 0.00 0.00 74 1007.6
20260505175851 57 360 0.0 0.0 0.00 0.00 0.00 74 1007.6
20260505175341 57 360 0.0 0.0 0.00 0.00 0.00 73 1007.6
20260505174833 58 360 0.0 0.0 0.00 0.00 0.00 75 1007.6
20260505174328 57 360 0.0 0.0 0.00 0.00 0.00 75 1007.6
20260505173842 57 360 0.0 0.0 0.00 0.00 0.00 75 1007.6
20260505173331 57 360 0.0 0.0 0.00 0.00 0.00 75 1007.6
20260505172839 57 360 0.0 0.0 0.00 0.00 0.00 75 1007.5
20260505172331 58 360 0.0 0.0 0.00 0.00 0.00 76 1007.5
20260505171843 58 360 0.0 0.0 0.00 0.00 0.00 76 1007.6
20260505171335 58 360 0.0 0.0 0.00 0.00 0.00 75 1007.5
20260505170846 58 360 0.0 0.0 0.00 0.00 0.00 75 1007.6
20260505170337 58 360 0.0 0.0 0.00 0.00 0.00 76 1007.6
20260505165846 58 360 0.0 0.0 0.00 0.00 0.00 76 1007.6
20260505165337 58 360 0.0 0.0 0.00 0.00 0.00 76 1007.6
20260505164844 58 360 0.0 0.0 0.00 0.00 0.00 75 1007.6
20260505164337 58 360 0.0 0.0 0.00 0.00 0.00 76 1007.6